Weather History for Ogden Hill AFB, UT

Change the Weather History Date:

Monday, August 11, 2014

  Actual Average Record
Temperature  
Mean Temperature 78 °F -  
Max Temperature 91 °F 85 °F 98 °F (2003)
Min Temperature 64 °F 62 °F 53 °F (1999)
Cooling Degree Days 12    
Growing Degree Days 28 (Base 50)    
Moisture  
Dew Point 45 °F    
Average Humidity 34    
Maximum Humidity 52    
Minimum Humidity 17    
Precipitation  
Precipitation 0.00 in - - ()
Sea Level Pressure  
Sea Level Pressure 30.02 in    
Wind  
Wind Speed 12 mph (ESE)    
Max Wind Speed 20 mph    
Max Gust Speed 24 mph    
Visibility 10 miles    
Events      
Averages and records for this station are not official NWS values.
T = Trace of Precipitation, MM = Missing Value Source: NWS Daily Summary

Daily Weather History Graph

Daily Weather History Graph

Search for Another Location

Airport:

Trip Planner

Search our weather history database for the weather conditions in past years. The results will help you decide how hot, cold, wet, or windy it might be!

Date:

Astronomy

Aug. 11, 2014 Rise Set
Actual Time 6:33 AM MDT 8:31 PM MDT
Civil Twilight 6:03 AM MDT 9:01 PM MDT
Nautical Twilight 5:26 AM MDT 9:38 PM MDT
Astronomical Twilight 4:47 AM MDT 10:17 PM MDT
Moon 9:01 PM MDT (8/11) 7:44 AM MDT (8/11)
Length of Visible Light 14h 58m
Length of Day
13h 58m
Full, 98% of the Moon is Illuminated
Aug 11
Full
Aug 17
Last Quarter
Aug 25
New
Sep 2
First Quarter
Sep 8
Full

Hourly Weather History & Observations

Time (MDT) Temp. Dew Point Humidity Pressure Visibility Wind Dir Wind Speed Gust Speed Precip Events Conditions
12:58 AM 71.6 °F 48.2 °F 43% 30.02 in 10.0 mi ESE 11.5 mph - N/A   Clear
1:58 AM 71.6 °F 46.4 °F 41% 30.02 in 10.0 mi ESE 12.7 mph - N/A   Clear
2:58 AM 68.0 °F 46.4 °F 46% 30.03 in 10.0 mi ESE 15.0 mph - N/A   Clear
3:58 AM 66.2 °F 46.4 °F 49% 30.02 in 10.0 mi ESE 16.1 mph - N/A   Clear
4:58 AM 66.2 °F 46.4 °F 49% 30.02 in 10.0 mi ESE 16.1 mph - N/A   Clear
5:58 AM 66.2 °F 46.4 °F 49% 30.02 in 10.0 mi ESE 13.8 mph - N/A   Clear
6:58 AM 64.4 °F 46.4 °F 52% 30.05 in 10.0 mi ESE 19.6 mph - N/A   Clear
7:58 AM 64.4 °F 46.4 °F 52% 30.06 in 10.0 mi ESE 19.6 mph - N/A   Clear
8:58 AM 68.0 °F 46.4 °F 46% 30.07 in 10.0 mi ESE 18.4 mph - N/A   Clear
9:58 AM 71.6 °F 48.2 °F 43% 30.07 in 10.0 mi ESE 19.6 mph 24.2 mph N/A   Clear
10:58 AM 78.8 °F 48.2 °F 34% 30.07 in 10.0 mi East 8.1 mph - N/A   Clear
11:58 AM 84.2 °F 48.2 °F 29% 30.04 in 10.0 mi Variable 5.8 mph - N/A   Clear
12:58 PM 86.0 °F 46.4 °F 25% 30.04 in 10.0 mi Calm Calm - N/A   Clear
1:58 PM 89.6 °F 41.0 °F 18% 30.02 in 10.0 mi West 5.8 mph - 0.00 in   Clear
2:58 PM 89.6 °F 44.6 °F 21% 30.01 in 10.0 mi West 4.6 mph - N/A   Clear
3:58 PM 91.4 °F 42.8 °F 18% 30.00 in 10.0 mi Variable 3.5 mph - N/A   Clear
4:58 PM 91.4 °F 41.0 °F 17% 29.98 in 10.0 mi Variable 3.5 mph - N/A   Clear
5:58 PM 91.4 °F 44.6 °F 20% 29.97 in 10.0 mi Variable 6.9 mph - N/A   Clear
6:58 PM 89.6 °F 42.8 °F 20% 29.97 in 10.0 mi NW 9.2 mph - N/A   Clear
7:58 PM 86.0 °F 41.0 °F 20% 29.99 in 10.0 mi NNW 4.6 mph - N/A   Clear
8:58 PM 82.4 °F 41.0 °F 23% 29.99 in 10.0 mi NNE 4.6 mph - N/A   Clear
9:58 PM 78.8 °F 44.6 °F 30% 29.99 in 10.0 mi ESE 10.4 mph - N/A   Clear
10:58 PM 78.8 °F 42.8 °F 28% 29.98 in 10.0 mi ESE 11.5 mph - N/A   Clear
11:58 PM 75.2 °F 44.6 °F 34% 29.96 in 10.0 mi ESE 12.7 mph - N/A   Clear